Location: Casteau
(50.5142°N, 4.0161°E)
Time: 03:11:39
(UTC+00:00)

Explorer 11/Cluster Stage 4 - Pass Details

Date: 03 August 2021
Orbit: 467 x 1257 km, 28.8° (Epoch: 18 September)

Event Time Altitude Azimuth Distance (km) Brightness Sun altitude
Rises 09:28:21 0° 229° (SW) 4,105 10.2 46.5°
Reaches altitude 10° 09:32:49 10° 207° (SSW) 3,206 9.9 47.0°
Maximum altitude 09:36:44 14° 178° (S) 2,901 10.1 47.5°
Drops below altitude 10° 09:40:41 10° 149° (SSE) 3,209 10.6 48.0°
Sets 09:45:09 0° 127° (SE) 4,112 10.9 48.5°
